This is the latest recevied weather packets stored in our database for station/object HB9FHL-13. If no packets are shown the sender has not sent any weather packets the latest 10 day(s).
| Time | Temp. | Humidity | Pressure | Rain* | Wind** | Luminosity | Snow |
|---|---|---|---|---|---|---|---|
| 1788344935 | 21.11° C | - | 1022.8 hPa | 0 mm | - | - | - |
| 1788344635 | 21.67° C | - | 1029.3 hPa | 0 mm | - | - | - |
| 1788344333 | 21.67° C | - | 1023 hPa | 0 mm | - | - | - |
| 1788344033 | 20.56° C | - | 1023.6 hPa | 0 mm | - | - | - |
| 1788343732 | 21.11° C | - | 1023.4 hPa | 0 mm | - | - | - |
| 1788343432 | 20.56° C | - | 1023.2 hPa | 0 mm | - | - | - |
| 1788343131 | 19.44° C | - | 1024.5 hPa | 0 mm | - | - | - |
| 1788342831 | 20° C | - | 1023.2 hPa | 0 mm | - | - | - |
| 1788342530 | 20° C | - | 1023 hPa | 0 mm | - | - | - |
| 1788342230 | 20.56° C | - | 1028 hPa | 0 mm | - | - | - |
| 1788341929 | 20° C | - | 1020.6 hPa | 0 mm | - | - | - |
| 1788341629 | 20.56° C | - | 1023.1 hPa | 0 mm | - | - | - |
| 1788341328 | 18.89° C | - | 1023.2 hPa | 0 mm | - | - | - |
| 1788340727 | 20° C | - | 1023.7 hPa | 0 mm | - | - | - |
| 1788340426 | 20° C | - | 1025.1 hPa | 0 mm | - | - | - |
| 1788340126 | 20° C | - | 1025.3 hPa | 0 mm | - | - | - |
| 1788339825 | 19.44° C | - | 1024 hPa | 0 mm | - | - | - |
| 1788339525 | 20° C | - | 1023.4 hPa | 0 mm | - | - | - |
| 1788339224 | 19.44° C | - | 1024.1 hPa | 0 mm | - | - | - |
| 1788338928 | 20° C | - | 1023.1 hPa | 0 mm | - | - | - |
| 1788338623 | 20.56° C | - | 1024.9 hPa | 0 mm | - | - | - |
| 1788338323 | 20° C | - | 1024.1 hPa | 0 mm | - | - | - |
| 1788338022 | 20° C | - | 1023.5 hPa | 0 mm | - | - | - |
| 1788337722 | 19.44° C | - | 1024.5 hPa | 0 mm | - | - | - |
| 1788337421 | 19.44° C | - | 1023.4 hPa | 0 mm | - | - | - |
* Rain since midnight (hover to see other rain measurements)
** Current wind speed in m/s (hover to see current wind gust speed)